Curtin, Australia

11:45 PM AWST on April 23, 2018 (GMT +0800)
Curtin

Weather History for YCIN - July, 2013

Change the Weather History Date:

Wednesday, July 10, 2013

  Actual Average Record
Temperature  
Mean Temperature 82 °F -  
Max Temperature 95 °F - - ()
Min Temperature 68 °F - - ()
Cooling Degree Days 16    
Growing Degree Days 32 (Base 50)    
Moisture  
Dew Point 52 °F    
Average Humidity 40    
Maximum Humidity 73    
Minimum Humidity 16    
Precipitation  
Precipitation 0.00 in - - ()
Sea Level Pressure  
Sea Level Pressure 29.90 in    
Wind  
Wind Speed 6 mph ()    
Max Wind Speed 12 mph    
Max Gust Speed -    
T = Trace of Precipitation, MM = Missing Value Source: Averaged Metar Reports

Daily Weather History Graph

Daily Weather History Graph

Search for Another Location

Airport or City:

Astronomy

Jul. 10, 2013 Rise Set
Actual Time 6:15 AM AWST 5:24 PM AWST
Civil Twilight 5:52 AM AWST 5:47 PM AWST
Nautical Twilight 5:25 AM AWST 6:14 PM AWST
Astronomical Twilight 4:59 AM AWST 6:41 PM AWST
Moon 7:20 AM AWST (7/10) 7:06 PM AWST (7/10)
Length of Visible Light 11h 55m
Length of Day
11h 08m
Waxing Crescent, 3% of the Moon is Illuminated
Jul 10
Waxing Crescent
Jul 16
First Quarter
Jul 23
Full
Jul 30
Last Quarter
Aug 7
New

Hourly Weather History & Observations

Time (AWST) Temp. Heat Index Dew Point Humidity Pressure Visibility Wind Dir Wind Speed Gust Speed Precip Events Conditions
12:00 AM 72 °F - 46 °F 28% 29.92 in - SE 5.8 mph - -  
12:00 AM 71.6 °F - 46.4 °F 41% 29.92 in - SE 5.8 mph - N/A   Unknown
1:00 AM 71.6 °F - 46.4 °F 41% 29.92 in - SE 6.9 mph - N/A   Unknown
2:00 AM 71.6 °F - 44.6 °F 38% 29.89 in - SE 9.2 mph - N/A   Unknown
3:00 AM 71 °F - 46 °F 29% 29.91 in - ESE 9.2 mph - -  
3:00 AM 69.8 °F - 46.4 °F 43% 29.89 in - ESE 9.2 mph - N/A   Unknown
4:00 AM 69.8 °F - 46.4 °F 43% 29.92 in - ESE 8.1 mph - N/A   Unknown
5:00 AM 69.8 °F - 46.4 °F 43% 29.92 in - ESE 8.1 mph - N/A   Unknown
6:00 AM 69 °F - 46 °F 33% 29.93 in - ESE 9.2 mph - -  
6:00 AM 69.8 °F - 46.4 °F 43% 29.92 in - ESE 9.2 mph - N/A   Unknown
7:00 AM 69.8 °F - 48.2 °F 46% 29.95 in - East 8.1 mph - N/A   Unknown
8:00 AM 78.8 °F - 51.8 °F 39% 29.95 in - ENE 8.1 mph - N/A   Unknown
9:00 AM 85 °F - 51 °F 21% 29.95 in - ENE 10.4 mph - -  
9:00 AM 86.0 °F - 51.8 °F 31% 29.95 in - ENE 10.4 mph - N/A   Unknown
10:00 AM 89.6 °F 87.3 °F 53.6 °F 29% 29.95 in - NE 11.5 mph - N/A   Unknown
11:00 AM 91.4 °F - 51.8 °F 26% 29.89 in - NE 8.1 mph - N/A   Unknown
12:00 PM 94 °F - 53 °F 16% 29.87 in - NE 8.1 mph - -  
12:00 PM 93.2 °F - 51.8 °F 24% 29.86 in - NE 8.1 mph - N/A   Unknown
1:00 PM 95.0 °F 92.7 °F 53.6 °F 25% 29.86 in - East 6.9 mph - N/A   Unknown
2:00 PM 95.0 °F 92.7 °F 53.6 °F 25% 29.83 in - NNE 9.2 mph - N/A   Unknown
3:00 PM 95 °F - 53 °F 16% 29.83 in - ENE 5.8 mph - -  
3:00 PM 95.0 °F 92.7 °F 53.6 °F 25% 29.83 in - ENE 5.8 mph - N/A   Unknown
4:00 PM 89.6 °F 88.1 °F 57.2 °F 33% 29.83 in - WNW 6.9 mph - N/A   Unknown
5:00 PM 86.0 °F 85.4 °F 59.0 °F 40% 29.86 in - NW 5.8 mph - N/A   Unknown
6:00 PM 78 °F - 57 °F 38% 29.88 in - WNW 3.5 mph - -  
6:00 PM 77.0 °F - 57.2 °F 50% 29.86 in - WNW 3.5 mph - N/A   Unknown
7:00 PM 73.4 °F - 57.2 °F 57% 29.89 in - NW 4.6 mph - N/A   Unknown
8:00 PM 69.8 °F - 57.2 °F 64% 29.92 in - Calm Calm - N/A   Unknown
9:00 PM 68 °F - 59 °F 64% 29.94 in - SW 3.5 mph - -  
9:00 PM 68.0 °F - 59.0 °F 73% 29.95 in - SW 3.5 mph - N/A   Unknown
10:00 PM 68.0 °F - 59.0 °F 73% 29.95 in - WSW 4.6 mph - N/A   Unknown
11:00 PM 68 °F - 58 °F 63% 29.95 in - South 3.5 mph - -  
11:00 PM 69.8 °F - 59.0 °F 68% 29.95 in - SW 5.8 mph - N/A   Unknown